Location: Palm Bay
(27.9400°N, 80.7200°W)
Time: 09:06:50
(UTC-04:00)

Daily predictions for brighter satellites

Satellite Brightness Start Highest point End
(mag) Time Altitude Azimuth Time Altitude Azimuth Time Altitude Azimuth
ATLAS 5 CENTAUR R/B 2.7 20:28:08 10° NNW 20:34:15 58° ENE 20:40:39 10° SE
USA 215 3.3 20:31:57 10° SE 20:38:30 86° NE 20:45:05 10° NW
H-2A R/B 3.8 20:35:52 10° SE 20:38:59 26° ENE 20:42:09 10° NNE
Cosmos 1733 Rocket 3.1 20:35:47 10° S 20:40:07 60° E 20:44:26 10° NNE
CZ-4B DEB 2.8 20:37:51 10° SSE 20:41:04 64° ENE 20:44:19 10° N
Cosmos 1340 Rocket 4.1 20:37:17 10° SSW 20:41:06 46° W 20:44:59 10° N
Meteosat 1 Rocket2 3.6 20:39:26 10° W 20:43:56 86° N 20:50:43 10° E
Spot 2 Rocket 4.2 20:41:58 10° S 20:46:58 58° WSW 20:52:01 10° NNW
Helios 1A 4.5 20:48:32 10° S 20:52:24 38° W 20:56:17 10° NNW
SL-27 R/B 2.9 20:49:05 10° N 20:52:32 42° ENE 20:55:53 10° SE
ERBS 2.8 20:50:31 10° NW 20:53:56 58° WSW 20:57:19 10° SSE
Meteor 2-10 Rocket 3.7 20:48:20 10° N 20:54:03 70° E 20:59:31 10° SSE
FengYun 1-2 T 4.4 20:50:11 10° SSE 20:55:48 84° WSW 21:01:29 10° NNW
SEDSat Delta rocket 3.0 20:51:26 10° WSW 20:56:15 88° NNW 21:00:33 10° ENE
Cosmos 1844 Rocket 3.6 20:52:32 10° SW 20:58:02 53° WNW 21:03:33 10° N
Cosmos 1782 3.4 20:54:19 10° NNE 20:58:04 37° E 21:01:47 10° SSE
Cosmos 1825 3.2 20:56:54 10° SSE 21:00:05 26° E 21:03:17 10° NE
FENGYUN 3A 3.7 20:55:05 10° SSE 21:00:25 67° ENE 21:05:46 10° N
Cosmos 2278 Rocket 2.1 20:57:11 10° S 21:02:48 73° ESE 21:08:28 10° NNE
ERS-1 Rocket 4.0 21:03:05 14° SE 21:06:33 29° ENE 21:10:50 10° NNE
Meteor 2-6 Rocket 4.5 21:00:51 10° N 21:06:34 52° E 21:12:07 10° SSE
Atlas Centaur 2 1.0 21:03:18 10° WNW 21:07:09 85° NNE 21:09:39 18° E
Cosmos 1420 Rocket 4.3 21:03:58 10° S 21:08:56 45° ESE 21:13:54 10° NNE
Cosmos 1844 4.4 21:03:56 10° SSW 21:09:35 59° WNW 21:15:18 10° N
H-2A R/B 3.8 21:09:40 14° E 21:10:56 16° ENE 21:13:31 10° NNE
COSMOS 2406 3.3 21:05:48 10° NNW 21:11:32 79° WSW 21:17:11 10° SSE
APEX 3.4 21:10:48 10° S 21:14:09 48° ESE 21:18:25 10° NNE
Cosmos 2154 Rocket 4.0 21:08:50 10° S 21:14:56 60° E 21:21:00 10° NNE
Cosmos 1939 Rocket 4.2 21:15:00 19° E 21:16:07 22° ENE 21:19:08 10° NNE
YAOGAN 11 4.5 21:16:57 18° SE 21:20:02 48° ENE 21:24:25 10° N
Abrixas 3.8 21:17:10 10° WSW 21:20:05 43° NW 21:22:59 10° NNE
Cosmos 407 Rocket 3.5 21:16:15 10° N 21:21:32 71° ENE 21:25:44 17° SSE
SPOT 5 4.5 21:23:32 19° E 21:25:10 21° ENE 21:29:07 10° NNE
COSMOS 2487 3.7 21:22:28 10° NNE 21:25:31 25° ENE 21:25:58 25° E
Cosmos 1238 Rocket 3.8 21:22:31 10° NNE 21:25:53 30° E 21:26:52 27° ESE
Cosmos 2082 Rocket 4.0 21:26:47 10° NNE 21:29:37 14° ENE 21:30:58 13° ENE
Cosmos 1452 Rocket 4.5 21:25:08 10° SSW 21:30:11 49° WNW 21:35:19 10° N
CENTAUR R/B 3.9 21:25:37 10° NW 21:33:21 48° WSW 21:41:12 10° S
Lacrosse 5 2.6 21:29:45 10° S 21:34:08 30° ESE 21:38:31 10° ENE
Orbus 7S 4.0 21:30:35 10° SW 21:34:38 28° S 21:34:39 28° S
Cosmos 1184 Rocket 2.6 21:32:55 21° S 21:34:59 81° E 21:38:19 10° N
Intercosmos 25 4.2 21:38:00 28° ENE 21:38:00 28° ENE 21:40:12 10° NNE
Cosmos 2297 3.6 21:35:49 10° SSW 21:41:28 77° ESE 21:47:12 10° NNE
Cosmos 1674 Rocket 4.3 21:39:14 10° NNW 21:43:32 51° W 21:47:31 12° SSW
H-2A R/B 3.6 21:43:47 10° W 21:47:58 88° S 22:17:30 10° E
Meteor 2-13 Rocket 4.4 21:42:59 15° S 21:48:07 66° E 21:54:14 10° NNE
Okean 2 Rocket 2.9 21:47:09 27° S 21:49:29 77° E 21:53:53 10° N
CZ-3A R/B 3.2 21:31:39 10° W 21:49:34 56° SSW 21:51:20 36° SE
Cosmos 1782 Rocket 3.8 21:50:37 15° SSW 21:54:18 72° W 21:58:47 10° N
CZ-4 DEB 4.1 21:55:36 28° SW 21:56:35 35° W 21:59:31 10° NNW
Cosmos 1606 3.3 21:53:59 10° NNW 21:57:49 54° W 21:59:21 32° SSW
EO 1 Delta rocket 4.1 21:56:42 10° N 22:02:01 72° W 22:05:29 18° SSW
Cosmos 1242 Rocket 3.4 22:02:05 10° N 22:04:46 41° NNE 22:04:46 41° NNE
ARGOS 4.3 22:09:06 27° ENE 22:09:06 27° ENE 22:13:10 10° NNE
Cosmos 1850 Rocket 4.2 22:03:54 10° N 22:09:05 50° ENE 22:09:25 50° E
Cosmos 2218 Rocket 4.0 22:08:10 42° SSE 22:10:18 64° E 22:16:37 10° NNE
COS B Rocket 3.9 22:07:00 10° NNW 22:10:28 44° W 22:10:45 43° W
Lacrosse 5 rocket 1.4 22:06:40 10° SW 22:10:44 71° NW 22:14:35 10° NNE
OAO 3 Rocket 4.4 22:08:18 10° WNW 22:12:58 39° N 22:15:30 23° NE
Cosmos 1954 Rocket 4.3 22:07:50 10° NNW 22:13:00 64° WSW 22:14:41 41° SSW
Nadezhda 3 Rocket 4.4 22:08:09 10° NNW 22:14:26 62° W 22:18:31 22° SSW
ATLAS 2A CENTAUR R/B 3.3 22:12:29 10° W 22:12:53 13° W 22:12:53 13° W
Cosmos 1975 Rocket 3.0 22:11:40 10° N 22:16:00 79° W 22:16:09 77° SW
DNEPR-1 R/B 3.9 22:11:47 10° NNW 22:16:17 55° NE 22:16:17 55° NE
Cosmos 1959 Rocket 4.3 22:16:50 48° SSE 22:18:36 76° E 22:24:41 10° N
SL-08 R/B 4.4 22:21:28 47° S 22:23:27 80° E 22:29:56 10° N
Cosmos 1023 Rocket 4.4 22:20:03 10° NNW 22:25:09 76° WSW 22:25:37 70° SSW
Cosmos 1727 Rocket 4.4 22:25:08 10° N 22:30:27 44° ENE 22:30:27 44° ENE
Cosmos 1741 Rocket 3.9 22:26:03 10° NNW 22:31:03 80° NNE 22:31:03 80° NNE
MetOp-A 4.0 22:31:17 85° ESE 22:31:25 86° ENE 22:36:47 10° NNW
Cosmos 1110 Rocket 4.0 22:35:43 75° N 22:35:43 75° N 22:40:30 10° NNE
Envisat 3.9 22:35:07 38° SW 22:36:12 44° W 22:41:02 10° NNW
Terra 4.0 22:44:32 15° NE 22:44:32 15° NE 22:45:48 10° NNE
SEDSat Delta rocket 4.2 22:38:16 10° W 22:41:22 39° NW 22:41:22 39° NW
Cosmos 614 Rocket 4.2 22:38:46 10° NNW 22:43:08 65° NW 22:43:08 65° NW
Meteosat 1 Rocket2 4.2 22:39:13 10° W 22:45:03 65° SSW 22:45:16 65° S
Cosmos 1833 Rocket 3.2 22:40:36 10° N 22:45:06 48° NNE 22:45:06 48° NNE
H-2A R/B 3.6 22:46:49 29° W 22:46:49 29° W 22:50:23 10° NW
SPOT 5 4.3 23:02:47 35° W 23:02:52 35° W 23:07:45 10° NNW
Cosmos 2082 Rocket 3.0 23:08:29 10° NNW 23:12:49 49° WNW 23:12:49 49° WNW
Lacrosse 5 3.6 23:12:32 10° WSW 23:16:59 30° NW 23:21:27 10° NNE
H-2A R/B 3.5 23:20:50 34° N 23:20:50 34° N 23:23:46 10° N
Cosmos 2369 Rocket 4.2 23:55:52 23° N 23:55:52 23° N 23:57:56 10° N
